Walnut Ridge, AR

7:34 AM CST on February 26, 2017 (GMT -0600)
Walnut Ridge Regional

Weather History for KARG - March, 2013

Change the Weather History Date:

Monday, March 4, 2013

  Actual Average Record
Temperature  
Mean Temperature 46 °F -  
Max Temperature 57 °F 51 °F 69 °F (2005)
Min Temperature 35 °F 34 °F 14 °F (2014)
Degree Days  
Heating Degree Days 19    
Moisture  
Dew Point 39 °F    
Average Humidity 75    
Maximum Humidity 93    
Minimum Humidity 61    
Precipitation  
Precipitation 0.01 in - - ()
Sea Level Pressure  
Sea Level Pressure 29.84 in    
Wind  
Wind Speed 10 mph (SE)    
Max Wind Speed 22 mph    
Max Gust Speed 28 mph    
Visibility 10 miles    
Events      
Averages and records for this station are not official NWS values.
T = Trace of Precipitation, MM = Missing Value Source: NWS Daily Summary

Daily Weather History Graph

Daily Weather History Graph

Search for Another Location

Airport or City:

Trip Planner

Search our weather history database for the weather conditions in past years. The results will help you decide how hot, cold, wet, or windy it might be!

Date:

Astronomy

Mar. 04, 2013 Rise Set
Actual Time 6:29 AM CST 6:01 PM CST
Civil Twilight 6:03 AM CST 6:27 PM CST
Nautical Twilight 5:34 AM CST 6:57 PM CST
Astronomical Twilight 5:04 AM CST 7:26 PM CST
Moon 12:31 AM CST (3/4) 10:51 AM CST (3/4)
Length of Visible Light 12h 23m
Length of Day
11h 32m
Waning Gibbous, 52% of the Moon is Illuminated
Mar 4
Waning Gibbous
Mar 4
Last Quarter
Mar 11
New
Mar 19
First Quarter
Mar 27
Full

Hourly Weather History & Observations

Time (CST) Temp. Windchill Dew Point Humidity Pressure Visibility Wind Dir Wind Speed Gust Speed Precip Events Conditions
12:15 AM 37.4 °F 30.8 °F 30.2 °F 75% 30.02 in 10.0 mi SE 9.2 mph - N/A   Clear
12:35 AM 37.4 °F 31.4 °F 30.2 °F 75% 30.03 in 10.0 mi SE 8.1 mph - N/A   Clear
12:55 AM 37.4 °F 30.8 °F 30.2 °F 75% 30.02 in 10.0 mi SE 9.2 mph - N/A   Clear
1:15 AM 37.4 °F 31.4 °F 30.2 °F 75% 30.02 in 10.0 mi ESE 8.1 mph - N/A   Clear
1:35 AM 37.4 °F 30.8 °F 30.2 °F 75% 30.00 in 10.0 mi ESE 9.2 mph - N/A   Clear
1:55 AM 35.6 °F 29.2 °F 30.2 °F 81% 29.99 in 10.0 mi ESE 8.1 mph - N/A   Clear
2:15 AM 35.6 °F 28.6 °F 30.2 °F 81% 29.98 in 10.0 mi ESE 9.2 mph - N/A   Clear
2:35 AM 37.4 °F 29.8 °F 30.2 °F 75% 29.97 in 10.0 mi ESE 11.5 mph - N/A   Clear
2:55 AM 37.4 °F 30.3 °F 28.4 °F 70% 29.96 in 10.0 mi ESE 10.4 mph - N/A   Clear
3:15 AM 37.4 °F 29.8 °F 30.2 °F 75% 29.95 in 10.0 mi ESE 11.5 mph - N/A   Clear
3:35 AM 37.4 °F 30.8 °F 30.2 °F 75% 29.95 in 10.0 mi SE 9.2 mph - N/A   Clear
3:55 AM 37.4 °F 30.3 °F 30.2 °F 75% 29.94 in 10.0 mi SE 10.4 mph - N/A   Clear
4:15 AM 37.4 °F 29.3 °F 28.4 °F 70% 29.93 in 10.0 mi SE 12.7 mph - N/A   Clear
4:35 AM 37.4 °F 29.3 °F 28.4 °F 70% 29.92 in 10.0 mi SE 12.7 mph - N/A   Clear
4:55 AM 37.4 °F 28.9 °F 28.4 °F 70% 29.91 in 10.0 mi SE 13.8 mph - N/A   Clear
5:15 AM 37.4 °F 28.5 °F 28.4 °F 70% 29.91 in 10.0 mi SE 15.0 mph - N/A   Clear
5:35 AM 37.4 °F 29.3 °F 28.4 °F 70% 29.91 in 10.0 mi SE 12.7 mph - N/A   Clear
6:15 AM 37.4 °F 28.9 °F 28.4 °F 70% 29.91 in 10.0 mi SE 13.8 mph - N/A   Clear
6:35 AM 37.4 °F 28.5 °F 28.4 °F 70% 29.91 in 10.0 mi SE 15.0 mph - N/A   Clear
6:55 AM 37.4 °F 29.8 °F 28.4 °F 70% 29.91 in 10.0 mi SE 11.5 mph - N/A   Clear
7:15 AM 39.2 °F 31.2 °F 28.4 °F 65% 29.90 in 10.0 mi SE 13.8 mph - N/A   Clear
7:35 AM 39.2 °F 31.6 °F 30.2 °F 70% 29.91 in 10.0 mi SE 12.7 mph - N/A   Clear
7:55 AM 41.0 °F 32.8 °F 30.2 °F 65% 29.90 in 10.0 mi SE 16.1 mph - N/A   Clear
8:15 AM 42.8 °F 36.2 °F 30.2 °F 61% 29.90 in 10.0 mi SSE 12.7 mph - N/A   Clear
8:35 AM 44.6 °F 37.4 °F 33.8 °F 66% 29.89 in 10.0 mi SSE 16.1 mph - N/A   Clear
8:55 AM 46.4 °F 40.1 °F 33.8 °F 62% 29.89 in 10.0 mi SSE 15.0 mph 21.9 mph N/A   Clear
9:15 AM 46.4 °F 38.5 °F 35.6 °F 66% 29.88 in 10.0 mi SSE 21.9 mph 27.6 mph N/A   Clear
9:35 AM 46.4 °F 39.0 °F 35.6 °F 66% 29.88 in 10.0 mi SSE 19.6 mph 26.5 mph N/A   Partly Cloudy
9:55 AM 48.2 °F - 37.4 °F 66% 29.87 in 10.0 mi South 19.6 mph 25.3 mph N/A   Mostly Cloudy
10:15 AM 46.4 °F 40.1 °F 37.4 °F 71% 29.86 in 10.0 mi SSE 15.0 mph - N/A   Overcast
10:35 AM 48.2 °F - 37.4 °F 66% 29.85 in 10.0 mi South 16.1 mph 20.7 mph N/A   Overcast
10:55 AM 48.2 °F - 39.2 °F 71% 29.85 in 10.0 mi South 12.7 mph - N/A   Overcast
11:15 AM 48.2 °F - 39.2 °F 71% 29.84 in 10.0 mi South 12.7 mph - N/A   Overcast
11:35 AM 48.2 °F - 41.0 °F 76% 29.83 in 10.0 mi SSE 11.5 mph - N/A   Overcast
11:55 AM 48.2 °F - 42.8 °F 82% 29.82 in 10.0 mi SSE 10.4 mph - N/A   Overcast
12:15 PM 50.0 °F - 42.8 °F 76% 29.81 in 10.0 mi SSE 10.4 mph - N/A   Overcast
12:55 PM 51.8 °F - 44.6 °F 76% 29.78 in 10.0 mi South 10.4 mph - N/A   Overcast
1:15 PM 51.8 °F - 44.6 °F 76% 29.78 in 10.0 mi South 9.2 mph - N/A   Overcast
1:35 PM 51.8 °F - 44.6 °F 76% 29.77 in 10.0 mi South 5.8 mph - N/A   Overcast
1:55 PM 53.6 °F - 44.6 °F 72% 29.76 in 10.0 mi South 8.1 mph - N/A   Overcast
2:15 PM 53.6 °F - 46.4 °F 77% 29.76 in 10.0 mi South 8.1 mph - N/A   Overcast
2:35 PM 55.4 °F - 46.4 °F 72% 29.75 in 10.0 mi South 11.5 mph - N/A   Overcast
2:55 PM 55.4 °F - 46.4 °F 72% 29.75 in 10.0 mi South 11.5 mph - N/A   Overcast
3:15 PM 55.4 °F - 46.4 °F 72% 29.74 in 10.0 mi South 10.4 mph - N/A   Overcast
3:35 PM 57.2 °F - 48.2 °F 72% 29.74 in 10.0 mi South 11.5 mph - N/A   Overcast
3:55 PM 57.2 °F - 46.4 °F 67% 29.73 in 10.0 mi South 12.7 mph - N/A   Overcast
4:15 PM 55.4 °F - 48.2 °F 77% 29.74 in 10.0 mi South 9.2 mph - N/A   Overcast
4:35 PM 55.4 °F - 46.4 °F 72% 29.74 in 10.0 mi South 10.4 mph - N/A   Overcast
4:55 PM 55.4 °F - 46.4 °F 72% 29.74 in 10.0 mi South 9.2 mph - N/A   Overcast
5:15 PM 55.4 °F - 48.2 °F 77% 29.74 in 10.0 mi South 6.9 mph - N/A   Overcast
5:35 PM 53.6 °F - 48.2 °F 82% 29.74 in 10.0 mi SSE 5.8 mph - N/A   Overcast
5:55 PM 53.6 °F - 48.2 °F 82% 29.74 in 10.0 mi SE 4.6 mph - N/A   Overcast
6:15 PM 51.8 °F - 46.4 °F 82% 29.74 in 10.0 mi East 5.8 mph - N/A   Overcast
6:35 PM 53.6 °F - 46.4 °F 77% 29.74 in 10.0 mi ESE 6.9 mph - N/A   Overcast
6:55 PM 53.6 °F - 46.4 °F 77% 29.74 in 10.0 mi East 5.8 mph - N/A   Overcast
7:15 PM 53.6 °F - 46.4 °F 77% 29.74 in 10.0 mi ESE 6.9 mph - N/A   Overcast
7:35 PM 53.6 °F - 46.4 °F 77% 29.75 in 10.0 mi ENE 3.5 mph - N/A   Overcast
7:55 PM 53.6 °F - 46.4 °F 77% 29.76 in 10.0 mi Calm Calm - 0.01 in   Overcast
8:35 PM 51.8 °F - 48.2 °F 88% 29.74 in 10.0 mi ESE 4.6 mph - N/A   Overcast
8:55 PM 50.0 °F - 46.4 °F 87% 29.75 in 10.0 mi NNW 11.5 mph - N/A   Overcast
9:15 PM 51.8 °F - 46.4 °F 82% 29.75 in 10.0 mi North 8.1 mph - N/A   Overcast
9:35 PM 50.0 °F - 46.4 °F 87% 29.75 in 10.0 mi North 10.4 mph - N/A   Overcast
9:55 PM 50.0 °F - 46.4 °F 87% 29.75 in 10.0 mi North 10.4 mph - N/A   Overcast
10:15 PM 50.0 °F - 46.4 °F 87% 29.75 in 5.0 mi North 8.1 mph - N/A   Overcast
10:35 PM 50.0 °F - 46.4 °F 87% 29.75 in 10.0 mi North 5.8 mph - N/A   Mostly Cloudy
10:55 PM 50.0 °F - 46.4 °F 87% 29.75 in 10.0 mi NNE 6.9 mph - N/A   Mostly Cloudy
11:15 PM 48.2 °F - 46.4 °F 93% 29.75 in 10.0 mi NE 8.1 mph - N/A   Overcast
11:35 PM 48.2 °F - 46.4 °F 93% 29.75 in 10.0 mi NNE 5.8 mph - N/A   Overcast
11:55 PM 48.2 °F - 46.4 °F 93% 29.75 in 10.0 mi NNE 5.8 mph - N/A   Overcast